Terminal Aerodrome Forecast
Issued by NWS Amarillo, TX

Home | Current Version | Previous Version | Text Only | Print | Product List | Glossary On
Versions: 1 2 3 4 5 6 7 8 9 10 11 12 13 14 15 16 17
000
FTUS44 KAMA 162341
TAFDHT
TAF
KDHT 162341Z 1700/1724 01006KT P6SM SKC
     FM170100 19010KT P6SM SKC=

USA.gov is the U.S. government's official web portal to all federal, state and local government web resources and services.